[[{"header":{"parameterUnit":"m.s-1","parameterCategory":1,"la1":30.2991,"la2":30.254,"lo1":-89.0895,"lo2":-89.0444,"dy":0.0017,"dx":0.0017,"nx":28,"ny":28,"refTime":"2023-09-05T21:00:00:Z","depth":0,"parameterNumber":2,"parameterNumberName":"U-component_of_WINDS"},"data":[0,0,0,0,0,0,0,0,0,0,0,0,0,0,0,0,0,0,0,0,0,0,0,0,0,0,0,0,0,0,0,0,0,0,0,0,0,0,0,0,0,0,0,0,0,0,0,0,0,0,0,0,0,0,0,0,0,0,0.4041,0.4041,0,0.4062,0.4063,0.4063,0.4063,0.4063,0.4062,0.4062,0.4083,0.4084,0.4085,0,0,0,0,0,0,0,0,0,0,0,0,0,0.3999,0.3999,0.4041,0.4041,0.4042,0.4062,0.4063,0.4063,0.4063,0.4063,0.4062,0.4062,0.4083,0.4084,0.4085,0,0,0,0,0,0,0,0,0,0,0,0,0,0.4018,0.4,0.4041,0.4044,0.4044,0.4062,0.4063,0.4063,0.4063,0.4062,0.4062,0.4062,0.4083,0.4084,0.4085,0.4101,0,0,0.4089,0.4089,0,0,0,0,0,0,0,0,0.4017,0.402,0.4043,0.4044,0.4044,0.406,0.4055,0.4076,0.4063,0.4056,0.4062,0.4061,0.4076,0.4077,0.4082,0.4102,0.4103,0.4089,0.409,0.409,0.409,0,0,0,0,0,0,0,0.4016,0.4019,0.4049,0.4044,0.4044,0.4044,0.4046,0.4059,0.4068,0.4056,0.4057,0.4059,0.4076,0.4081,0.4083,0.4103,0.4089,0.409,0.4091,0.4091,0.4136,0.4136,0,0,0,0,0,0,0.4014,0.4018,0.4049,0.405,0.4029,0.4045,0.4048,0.4055,0.4068,0.4069,0.4059,0.4059,0.4079,0.4081,0.4083,0.4102,0.409,0.4091,0.4092,0.4135,0.4136,0.4136,0,0,0,0,0,0,0.4013,0.4017,0.4048,0.4034,0.4038,0.4046,0.4055,0.4056,0.4061,0.407,0.4071,0.4063,0.4079,0.4082,0.4096,0.4103,0.4092,0.4093,0.4135,0.4136,0.4136,0.414,0,0,0,0,0,0,0.4012,0.4016,0.4023,0.4034,0.4039,0.4061,0.4055,0.4056,0.4063,0.4063,0.4074,0.4075,0.4079,0.4095,0.4098,0.4104,0.4094,0.4134,0.4135,0.4136,0.414,0.4141,0.4142,0,0,0,0,0,0.401,0.4023,0.4023,0.4027,0.4047,0.4061,0.4064,0.4068,0.4064,0.407,0.4076,0.4075,0.4102,0.4096,0.41,0.4107,0.4134,0.4135,0.4136,0.4139,0.4141,0.4142,0,0,0,0,0,0,0.4012,0.4025,0.4025,0.4042,0.4051,0.4061,0.4069,0.407,0.4079,0.4079,0.4083,0.4085,0.41,0.4105,0.4098,0.4122,0.4117,0.4119,0.4119,0.412,0.4122,0.412,0.4095,0,0,0,0,0,0.4015,0.4026,0.4036,0.405,0.4054,0.4061,0.4067,0.407,0.4079,0.4082,0.4089,0.4097,0.4108,0.4114,0.4124,0.4141,0.4142,0.4147,0.4148,0.415,0.4151,0.4159,0.4161,0.414,0.414,0.414,0,0,0.402,0.4028,0.4035,0.4051,0.4058,0.4068,0.4064,0.4076,0.4084,0.4084,0.4098,0.4103,0.4113,0.4128,0.4135,0.4133,0.4157,0.4151,0.4152,0.4152,0.416,0.4162,0.4164,0.414,0.414,0.414,0,0,0.4035,0.4043,0.4055,0.4062,0.4072,0.4076,0.4079,0.409,0.4093,0.4108,0.4108,0.4117,0.4135,0.4141,0.4147,0.4164,0.4163,0.4167,0.4173,0.4181,0.4183,0.4184,0.4189,0.4191,0.4168,0.4168,0.4168,0,0.404,0.4056,0.4061,0.4072,0.4079,0.408,0.4092,0.4098,0.4111,0.4115,0.4113,0.4135,0.4141,0.4158,0.4161,0.4166,0.4169,0.4165,0.4182,0.4184,0.4185,0.419,0.4192,0.4168,0.4168,0.4168,0.4168,0,0.4062,0.4073,0.4081,0.4094,0.4102,0.4113,0.4119,0.4126,0.4127,0.4132,0.4146,0.4154,0.4165,0.4169,0.4171,0.4185,0.4183,0.4182,0.4176,0.4188,0.4192,0.4194,0.4169,0.4169,0.4169,0.4169,0,0,0.4078,0.4093,0.4096,0.4101,0.4113,0.4121,0.4133,0.4144,0.4149,0.4158,0.4167,0.4182,0.418,0.4187,0.4189,0.4196,0.4207,0.4193,0.4193,0.4195,0.4223,0.4224,0.4226,0.4207,0.4208,0.4208,0.4222,0,0.4094,0.4114,0.4118,0.4136,0.4146,0.4146,0.4156,0.4164,0.4168,0.4177,0.4182,0.4192,0.4189,0.4193,0.42,0.4205,0.4213,0.4204,0.4215,0.4216,0.4212,0.4229,0.423,0.4243,0.4224,0.4224,0.4225,0,0.4114,0.4124,0.4142,0.4152,0.4156,0.4165,0.4175,0.4183,0.4192,0.4194,0.4201,0.4203,0.4214,0.4209,0.4224,0.4217,0.4222,0.4225,0.4226,0.4227,0.422,0.4229,0.4247,0.4249,0.4228,0.4227,0.4227,0,0.4124,0.4141,0.4154,0.4159,0.417,0.4176,0.4181,0.4189,0.4196,0.4204,0.4208,0.4218,0.4223,0.4231,0.4234,0.423,0.4249,0.4244,0.4251,0.4251,0.4254,0.4254,0.4272,0.4259,0.4258,0.4258,0.4258,0,0.414,0.4151,0.4158,0.4166,0.4178,0.4183,0.4194,0.4199,0.4206,0.4215,0.4216,0.4224,0.4229,0.4237,0.424,0.4252,0.4254,0.4256,0.4257,0.4256,0.4256,0.4259,0.4258,0.4259,0.4259,0.4259,0.4259,0,0.4152,0.4158,0.4172,0.4181,0.4184,0.4193,0.4201,0.4208,0.4212,0.4223,0.4226,0.4232,0.4242,0.4247,0.4259,0.4261,0.4274,0.4274,0.4271,0.4271,0.4277,0.4276,0.4298,0.4301,0.4286,0.4286,0.4286,0,0.4162,0.417,0.4181,0.4187,0.4192,0.4202,0.4208,0.4212,0.4218,0.4228,0.4234,0.4244,0.4253,0.4268,0.4274,0.4283,0.4283,0.429,0.4285,0.4283,0.4282,0.4282,0.4282,0.4291,0.4291,0.4291,0.4291,0,0.4178,0.418,0.419,0.4199,0.4207,0.4215,0.4222,0.4227,0.4232,0.4239,0.425,0.4256,0.4268,0.4278,0.4287,0.4292,0.4292,0.4293,0.4295,0.4294,0.4291,0.4292,0.4273,0.4292,0.4292,0.4292,0.4292,0.4292,0.4189,0.4196,0.4205,0.4215,0.4221,0.4228,0.4235,0.424,0.4249,0.4259,0.4261,0.4272,0.428,0.4292,0.4297,0.4305,0.4304,0.4307,0.4307,0.4308,0.4308,0.429,0.4307,0.4307,0.4307,0.4307,0.4307,0,0.4205,0.421,0.4219,0.423,0.4238,0.4238,0.4246,0.4252,0.4261,0.4269,0.4277,0.4288,0.4297,0.4303,0.4313,0.4318,0.4318,0.432,0.4319,0.432,0.4309,0.4306,0.432,0.432,0.432,0.432,0.432,0.432,0.4214,0.4226,0.4229,0.4244,0.4249,0.426,0.4264,0.4271,0.4276,0.4289,0.4297,0.4301,0.4307,0.4317,0.4325,0.4327,0.433,0.4332,0.4333,0.4323,0.4321,0.432,0.4317,0.4333,0.4333,0.4344,0.4344,0.4344]},{"header":{"parameterUnit":"m.s-1","parameterCategory":1,"la1":30.2991,"la2":30.254,"lo1":-89.0895,"lo2":-89.0444,"dy":0.0017,"dx":0.0017,"nx":28,"ny":28,"refTime":"2023-09-05T21:00:00:Z","depth":0,"parameterNumber":3,"parameterNumberName":"V-component_of_WINDS"},"data":[0,0,0,0,0,0,0,0,0,0,0,0,0,0,0,0,0,0,0,0,0,0,0,0,0,0,0,0,0,0,0,0,0,0,0,0,0,0,0,0,0,0,0,0,0,0,0,0,0,0,0,0,0,0,0,0,0,0,2.0369,2.037,0,2.0415,2.0415,2.0416,2.0387,2.0386,2.0384,2.0383,2.0426,2.0429,2.0431,0,0,0,0,0,0,0,0,0,0,0,0,0,2.0254,2.0256,2.0369,2.037,2.0371,2.0415,2.0415,2.0416,2.0387,2.0386,2.0384,2.0383,2.0426,2.0428,2.0431,0,0,0,0,0,0,0,0,0,0,0,0,0,2.0302,2.0257,2.0369,2.0362,2.0361,2.0414,2.0415,2.0416,2.0388,2.0386,2.0384,2.0382,2.0425,2.0428,2.0432,2.0494,0,0,2.0443,2.0444,0,0,0,0,0,0,0,0,2.03,2.0306,2.0362,2.0362,2.0362,2.0393,2.039,2.0442,2.0388,2.0378,2.0383,2.0381,2.0417,2.0421,2.0434,2.0496,2.0498,2.0443,2.0445,2.0447,2.0448,0,0,0,0,0,0,0,2.0296,2.0304,2.0387,2.0363,2.0363,2.0355,2.0359,2.04,2.0408,2.0378,2.0376,2.0382,2.0416,2.043,2.0434,2.0498,2.0443,2.0446,2.0448,2.045,2.0611,2.0613,0,0,0,0,0,0,2.0294,2.0302,2.0386,2.0389,2.0325,2.0358,2.0364,2.0385,2.0407,2.0409,2.0384,2.0381,2.0425,2.043,2.0436,2.0508,2.0447,2.045,2.0452,2.0609,2.0612,2.0614,0,0,0,0,0,0,2.0292,2.0302,2.0384,2.0345,2.0354,2.0362,2.0387,2.0387,2.0401,2.0412,2.0412,2.0397,2.0424,2.0431,2.0479,2.051,2.0452,2.0455,2.0607,2.061,2.0613,2.0655,0,0,0,0,0,0,2.0288,2.0301,2.0326,2.0345,2.0357,2.0428,2.0389,2.0389,2.0408,2.0404,2.0424,2.0425,2.0423,2.0474,2.0483,2.0513,2.0458,2.0604,2.0608,2.0612,2.0651,2.0659,2.0667,0,0,0,0,0,2.0284,2.0336,2.0327,2.0338,2.0388,2.043,2.0436,2.0433,2.041,2.0434,2.0441,2.0425,2.0505,2.0479,2.0489,2.0521,2.0602,2.0607,2.0612,2.0648,2.0658,2.0666,0,0,0,0,0,0,2.0319,2.0338,2.0329,2.0388,2.0408,2.0425,2.0455,2.0444,2.0469,2.0465,2.0459,2.0464,2.0514,2.0522,2.0493,2.0581,2.055,2.0557,2.0574,2.0584,2.0591,2.0587,2.0461,0,0,0,0,0,2.0333,2.0367,2.0382,2.0432,2.0443,2.0448,2.0466,2.0461,2.0481,2.0489,2.0499,2.0517,2.0546,2.0565,2.0593,2.0652,2.0655,2.0679,2.0687,2.0693,2.0699,2.0729,2.0739,2.063,2.063,2.063,0,0,2.0363,2.0378,2.04,2.044,2.0454,2.0487,2.0455,2.0492,2.0516,2.0494,2.054,2.0548,2.0568,2.0622,2.0646,2.063,2.073,2.0699,2.0704,2.0706,2.0735,2.0745,2.0754,2.0633,2.0633,2.0632,0,0,2.0435,2.0451,2.0494,2.0509,2.0532,2.0534,2.0545,2.0564,2.0568,2.0615,2.0598,2.0626,2.0677,2.0692,2.0706,2.0782,2.0767,2.0791,2.0831,2.086,2.0869,2.0876,2.0902,2.0911,2.0797,2.0797,2.0797,0,2.047,2.0521,2.0517,2.0556,2.0573,2.0555,2.0598,2.0612,2.0642,2.0654,2.0636,2.0699,2.0711,2.0767,2.0786,2.0798,2.0808,2.0788,2.0868,2.0876,2.0883,2.0907,2.0917,2.08,2.0799,2.0799,2.0799,0,2.0561,2.0596,2.0628,2.0658,2.0679,2.0719,2.0721,2.0742,2.0736,2.074,2.0786,2.08,2.083,2.0843,2.0837,2.0898,2.0887,2.0869,2.0837,2.0896,2.0918,2.0928,2.0803,2.0802,2.0802,2.0801,0,0,2.0655,2.0683,2.0694,2.0707,2.073,2.0757,2.0795,2.0825,2.0842,2.0863,2.0894,2.0937,2.092,2.0936,2.0932,2.0958,2.1015,2.0936,2.0937,2.0949,2.108,2.1093,2.1104,2.1006,2.1008,2.1009,2.1078,0,2.0727,2.0796,2.0794,2.0857,2.0888,2.0871,2.0905,2.0921,2.0926,2.0952,2.0957,2.0987,2.0963,2.0972,2.0998,2.1003,2.1041,2.0998,2.1033,2.1034,2.1027,2.1116,2.1129,2.1194,2.1087,2.1089,2.109,0,2.0821,2.0845,2.0912,2.0929,2.0942,2.0972,2.0998,2.1024,2.1042,2.1043,2.106,2.1052,2.1089,2.1057,2.1107,2.1078,2.1092,2.1096,2.1099,2.1101,2.1065,2.1119,2.1214,2.1223,2.1104,2.1103,2.1102,0,2.0881,2.0931,2.0976,2.0988,2.1009,2.1031,2.104,2.1057,2.1074,2.1096,2.1107,2.1133,2.1147,2.1167,2.1165,2.1142,2.1215,2.1183,2.1216,2.1216,2.1231,2.123,2.1329,2.1242,2.1242,2.1242,2.1242,0,2.0961,2.1002,2.1004,2.1032,2.1076,2.1073,2.1116,2.1124,2.1138,2.1166,2.1153,2.1179,2.1175,2.1201,2.1199,2.124,2.1247,2.1248,2.1246,2.1248,2.1248,2.1256,2.1251,2.1245,2.1244,2.1244,2.1243,0,2.1036,2.1039,2.1087,2.1104,2.1108,2.114,2.1154,2.1179,2.1182,2.1218,2.1226,2.123,2.126,2.126,2.1294,2.1292,2.1342,2.1336,2.1336,2.1334,2.1366,2.1363,2.1473,2.1487,2.1393,2.1394,2.1395,0,2.1086,2.1117,2.1136,2.1155,2.1166,2.1195,2.1213,2.121,2.1228,2.1251,2.1273,2.1302,2.1324,2.1372,2.1377,2.1403,2.1396,2.1433,2.14,2.14,2.1395,2.1393,2.1395,2.144,2.1441,2.1441,2.1442,0,2.1174,2.1174,2.12,2.1227,2.1248,2.1269,2.1288,2.1303,2.1302,2.1323,2.1354,2.1371,2.1406,2.1433,2.1457,2.1466,2.1453,2.1453,2.1461,2.1463,2.1461,2.146,2.1352,2.145,2.1449,2.1449,2.1448,2.1448,2.1237,2.1263,2.1281,2.131,2.1324,2.1342,2.1366,2.1373,2.1398,2.1426,2.1423,2.1456,2.1472,2.1503,2.1513,2.1538,2.1525,2.1538,2.1541,2.1544,2.1547,2.1458,2.1543,2.1543,2.1542,2.1542,2.1542,0,2.1323,2.1334,2.1361,2.1388,2.141,2.1398,2.1418,2.1437,2.1467,2.1483,2.1505,2.1539,2.1566,2.1573,2.1599,2.1617,2.1612,2.1624,2.1621,2.1623,2.1558,2.1547,2.1627,2.1627,2.1627,2.1627,2.1627,2.1627,2.1371,2.1414,2.1415,2.1464,2.1474,2.1507,2.1519,2.1535,2.1548,2.1587,2.1609,2.1614,2.1626,2.1652,2.1675,2.1676,2.1685,2.1699,2.1698,2.1637,2.1628,2.162,2.161,2.1702,2.1702,2.1761,2.1762,2.1762]}]]